Date String (YYYY-MM-DD hh:mm:ss) UTC,Instrument flags,Ambient pressure (hPa),Sample flow (lpm),Bypass flow (lpm),Sample temperature (°C),Ambient temperature (°C),ASC tube jacket temperature (°C),LED temperature (°C),Box temperature (°C),Sample RH (%),Span deviation,Mass concentration (μg/m³),Mass concentration (μg/m³),Mass concentration (μg/m³)
DateTimeUTC,F1_M11,P_M11,Q1_M11,Q2_M11,T1_M11,T2_M11,T3_M11,T4_M11,T5_M11,U1_M11,ZSPAN_M11,X0_M11,X2_M11,X1_M11
2023-04-09 23:00:00,,0835.2,4.99,0.00,28.8,27.5,00.0,37.1,30.3,09.5,0000.0,0008.41,0003.55,0002.26
2023-04-09 23:01:00,,0835.2,5.00,0.00,28.8,27.6,00.0,37.1,30.3,09.3,0000.0,0008.45,0003.60,0002.33
2023-04-09 23:02:00,,0834.9,5.01,0.00,28.8,27.6,00.0,37.1,30.4,09.4,0000.0,0008.60,0003.62,0002.41
2023-04-09 23:03:00,,0834.9,5.01,0.00,28.8,27.6,00.0,37.1,30.4,09.3,0000.0,0009.41,0003.70,0002.50
2023-04-09 23:04:00,,0835.0,5.00,0.00,28.9,27.6,00.0,37.1,30.4,09.3,0000.0,0009.53,0003.75,0002.59
2023-04-09 23:05:00,,0834.9,5.00,0.00,28.9,27.6,00.0,37.1,30.4,09.5,0000.0,0009.17,0003.78,0002.64
2023-04-09 23:06:00,,0835.0,5.00,0.00,28.9,27.6,00.0,37.1,30.4,09.5,0000.0,0008.88,0003.78,0002.67
2023-04-09 23:07:00,,0835.0,5.00,0.00,28.9,27.6,00.0,37.2,30.4,09.4,0000.0,0009.30,0003.85,0002.68
2023-04-09 23:08:00,,0835.0,5.00,0.00,28.9,27.6,00.0,37.2,30.4,09.5,0000.0,0010.25,0003.85,0002.67
2023-04-09 23:09:00,,0835.0,5.00,0.00,28.9,27.6,00.0,37.2,30.4,09.2,0000.0,0010.68,0003.83,0002.64
2023-04-09 23:10:00,,0835.1,5.00,0.00,28.9,27.6,00.0,37.2,30.4,09.2,0000.0,0010.67,0003.82,0002.62
2023-04-09 23:11:00,,0835.1,5.00,0.00,28.9,27.7,00.0,37.2,30.5,09.1,0000.0,0010.98,0003.81,0002.60
2023-04-09 23:12:00,,0835.2,5.00,0.00,28.9,27.7,00.0,37.2,30.5,09.0,0000.0,0011.03,0003.81,0002.57
2023-04-09 23:13:00,,0835.1,4.99,0.00,29.0,27.7,00.0,37.2,30.5,09.0,0000.0,0011.04,0003.82,0002.56
2023-04-09 23:14:00,,0835.2,5.01,0.00,29.0,27.8,00.0,37.3,30.5,09.0,0000.0,0010.16,0003.80,0002.53
2023-04-09 23:15:00,,0835.2,5.00,0.00,29.0,27.8,00.0,37.3,30.5,09.2,0000.0,0010.19,0003.84,0002.53
2023-04-09 23:16:00,,0835.2,4.99,0.00,29.0,27.8,00.0,37.3,30.5,09.2,0000.0,0010.34,0003.91,0002.55
2023-04-09 23:17:00,,0835.2,5.00,0.00,29.0,27.8,00.0,37.3,30.6,09.2,0000.0,0010.30,0003.94,0002.57
2023-04-09 23:18:00,,0835.2,5.01,0.00,29.0,27.8,00.0,37.3,30.6,09.0,0000.0,0010.03,0003.93,0002.59
2023-04-09 23:19:00,,0835.2,5.00,0.00,29.1,27.9,00.0,37.3,30.6,08.9,0000.0,0009.26,0003.89,0002.56
2023-04-09 23:20:00,,0835.2,5.00,0.00,29.1,27.9,00.0,37.3,30.6,08.8,0000.0,0008.65,0003.94,0002.56
2023-04-09 23:21:00,,0835.3,5.00,0.00,29.1,27.9,00.0,37.3,30.6,09.0,0000.0,0008.71,0003.94,0002.53
2023-04-09 23:22:00,,0835.3,5.00,0.00,29.1,27.9,00.0,37.4,30.6,09.1,0000.0,0008.73,0004.03,0002.53
2023-04-09 23:23:00,,0835.3,4.99,0.00,29.1,27.9,00.0,37.4,30.6,08.9,0000.0,0008.70,0004.01,0002.53
2023-04-09 23:24:00,,0835.3,5.00,0.00,29.1,27.9,00.0,37.4,30.6,08.7,0000.0,0008.69,0003.98,0002.52
2023-04-09 23:25:00,,0835.3,5.00,0.00,29.1,28.0,00.0,37.4,30.7,08.7,0000.0,0008.90,0004.01,0002.53
2023-04-09 23:26:00,,0835.3,5.00,0.00,29.1,28.0,00.0,37.4,30.7,08.6,0000.0,0008.88,0003.98,0002.51
2023-04-09 23:27:00,,0835.3,5.01,0.00,29.2,28.0,00.0,37.4,30.7,08.6,0000.0,0009.03,0003.93,0002.48
2023-04-09 23:28:00,,0835.3,5.00,0.00,29.2,28.0,00.0,37.4,30.7,08.7,0000.0,0009.06,0003.89,0002.47
2023-04-09 23:29:00,,0835.3,5.00,0.00,29.2,28.0,00.0,37.5,30.7,09.0,0000.0,0008.91,0003.82,0002.43
2023-04-09 23:30:00,,0835.3,5.00,0.00,29.2,28.0,00.0,37.5,30.8,08.8,0000.0,0008.88,0003.82,0002.43
2023-04-09 23:31:00,,0835.3,5.00,0.00,29.2,28.0,00.0,37.5,30.7,08.8,0000.0,0008.75,0003.77,0002.41
2023-04-09 23:32:00,,0835.2,5.00,0.00,29.2,28.0,00.0,37.5,30.8,08.8,0000.0,0008.77,0003.75,0002.41
2023-04-09 23:33:00,,0835.3,5.00,0.00,29.2,28.0,00.0,37.5,30.8,08.7,0000.0,0008.54,0003.67,0002.41
2023-04-09 23:34:00,,0835.3,5.00,0.00,29.3,28.0,00.0,37.5,30.8,08.8,0000.0,0008.65,0003.68,0002.41
2023-04-09 23:35:00,,0835.2,4.98,0.00,29.3,28.0,00.0,37.5,30.8,08.8,0000.0,0008.66,0003.71,0002.41
2023-04-09 23:36:00,,0835.2,5.00,0.00,29.3,28.0,00.0,37.5,30.8,08.7,0000.0,0008.37,0003.65,0002.39
2023-04-09 23:37:00,,0835.2,5.00,0.00,29.3,28.0,00.0,37.6,30.8,08.7,0000.0,0008.30,0003.65,0002.40
2023-04-09 23:38:00,,0835.2,4.98,0.00,29.3,28.0,00.0,37.6,30.8,08.8,0000.0,0007.95,0003.59,0002.39
2023-04-09 23:39:00,,0835.2,5.01,0.00,29.3,28.0,00.0,37.6,30.8,08.5,0000.0,0007.49,0003.55,0002.38
2023-04-09 23:40:00,,0835.3,4.98,0.00,29.3,28.0,00.0,37.6,30.8,08.4,0000.0,0007.67,0003.59,0002.35
2023-04-09 23:41:00,,0835.3,5.00,0.00,29.3,28.0,00.0,37.6,30.8,08.3,0000.0,0007.97,0003.58,0002.34
2023-04-09 23:42:00,,0835.3,5.00,0.00,29.3,28.0,00.0,37.6,30.8,08.3,0000.0,0008.47,0003.56,0002.32
2023-04-09 23:43:00,,0835.3,5.00,0.00,29.3,28.0,00.0,37.6,30.8,08.3,0000.0,0008.38,0003.55,0002.30
2023-04-09 23:44:00,,0835.3,5.01,0.00,29.4,28.1,00.0,37.6,30.9,08.2,0000.0,0008.49,0003.57,0002.29
2023-04-09 23:45:00,,0835.4,5.00,0.00,29.4,28.1,00.0,37.6,30.8,08.5,0000.0,0008.29,0003.55,0002.28
2023-04-09 23:46:00,,0835.4,5.01,0.00,29.4,28.1,00.0,37.6,30.9,08.7,0000.0,0008.19,0003.54,0002.26
2023-04-09 23:47:00,,0835.4,5.00,0.00,29.4,28.1,00.0,37.7,30.9,08.7,0000.0,0008.20,0003.53,0002.25
2023-04-09 23:48:00,,0835.5,5.00,0.00,29.4,28.1,00.0,37.7,30.9,08.6,0000.0,0008.62,0003.52,0002.23
2023-04-09 23:49:00,,0835.4,4.99,0.00,29.4,28.1,00.0,37.7,30.9,08.6,0000.0,0009.17,0003.58,0002.21
2023-04-09 23:50:00,,0835.5,5.00,0.00,29.4,28.1,00.0,37.7,30.9,08.6,0000.0,0009.34,0003.64,0002.22
2023-04-09 23:51:00,,0835.5,5.00,0.00,29.4,28.2,00.0,37.7,30.9,08.8,0000.0,0009.34,0003.68,0002.25
2023-04-09 23:52:00,,0835.5,5.00,0.00,29.4,28.2,00.0,37.7,30.9,08.6,0000.0,0009.15,0003.66,0002.26
2023-04-09 23:53:00,,0835.5,5.01,0.00,29.4,28.2,00.0,37.7,30.9,08.7,0000.0,0008.51,0003.67,0002.30
2023-04-09 23:54:00,,0835.5,5.00,0.00,29.4,28.2,00.0,37.7,31.0,08.6,0000.0,0008.43,0003.66,0002.33
2023-04-09 23:55:00,,0835.5,4.99,0.00,29.5,28.2,00.0,37.8,31.0,08.5,0000.0,0008.66,0003.71,0002.36
2023-04-09 23:56:00,,0835.5,5.00,0.00,29.5,28.3,00.0,37.8,31.0,08.5,0000.0,0008.67,0003.72,0002.38
2023-04-09 23:57:00,,0835.5,5.01,0.00,29.5,28.3,00.0,37.8,31.0,08.4,0000.0,0008.57,0003.69,0002.39
2023-04-09 23:58:00,,0835.5,5.01,0.00,29.5,28.3,00.0,37.8,31.0,08.3,0000.0,0008.73,0003.73,0002.40
2023-04-09 23:59:00,,0835.5,5.00,0.00,29.5,28.3,00.0,37.8,31.1,08.3,0000.0,0008.33,0003.72,0002.40
